Location: Im Fang
(46.6019°N, 7.2397°E)
Time: 03:58:26
(UTC+00:00)

Envisat - Pass Details

Date: 12 March 2021
Orbit: 764 x 766 km, 98.1° (Epoch: 18 April)

Event Time Altitude Azimuth Distance (km) Brightness Sun altitude
Rises 04:23:43 0° 22° (NNE) 3,244 6.8 -15.5°
Reaches altitude 10° 04:26:19 10° 34° (NNE) 2,312 6.1 -15.1°
Maximum altitude 04:30:45 30° 94° (E) 1,359 5.1 -14.3°
Drops below altitude 10° 04:35:10 10° 155° (SSE) 2,295 5.7 -13.6°
Sets 04:37:43 0° 166° (SSE) 3,216 6.3 -13.2°
